Location: Quedlinburg
(51.7921°N, 11.1414°E)
Time: 16:03:25
(UTC+02:00)

CUBESAT XI-V - Pass Details

Date: 21 March 2026
Orbit: 643 x 664 km, 98.3° (Epoch: 17 April)

Event Time Altitude Azimuth Distance (km) Brightness Sun altitude
Exits shadow 02:49:44 45° 27° (NNE) 889 ? -29.5°
Drops below altitude 10° 02:53:12 10° 353° (N) 2,064 ? -29.2°
Sets 02:55:26 0° 349° (N) 2,976 ? -28.9°
